Theta_e
293 294 294 295 296 297 298 299 300 302 302 302 301 300 298 302 310 313 315 315 319 321 319 319 319 318 319 320 320 321 321 321 318 319 319 320 319 319 320 320 321 321 323 323 321 324 328 321 319 321 321 319 317 317
294 294 294 295 295 295 296 298 300 301 303 302 302 301 298 301 310 312 315 315 316 320 319 317 316 316 318 319 323 321 320 318 318 320 320 320 319 321 319 321 320 322 324 323 326 328 323 321 321 319 319 318 317 317
294 294 294 294 294 295 295 297 298 301 302 303 302 302 298 300 309 312 314 315 317 319 318 320 319 316 315 315 318 323 322 320 322 321 320 322 322 321 322 323 321 323 321 325 324 323 321 320 319 318 317 317 316 315
294 294 294 294 293 293 295 295 297 300 301 304 303 302 299 301 308 311 313 315 316 318 319 318 316 317 316 315 315 320 323 320 320 321 325 327 323 322 322 325 324 322 322 324 325 321 319 318 318 316 315 314 314 313
294 294 294 293 293 293 293 294 296 298 301 303 303 301 299 302 308 310 312 314 314 317 319 318 317 316 318 319 320 320 322 321 319 322 325 325 321 322 322 323 323 321 323 324 325 321 321 318 316 315 314 313 313 312
294 294 293 293 293 293 293 294 296 299 301 303 303 300 299 302 307 309 312 314 312 315 318 321 316 316 317 319 320 321 321 321 320 322 322 321 320 322 324 322 321 320 321 321 323 320 320 317 315 314 313 312 311 311
293 293 293 293 293 293 293 294 296 299 302 303 301 299 299 303 307 310 312 314 313 313 318 319 319 316 316 317 318 318 319 319 320 320 321 320 319 320 321 322 319 319 319 320 320 319 317 315 314 313 312 311 310 309
292 292 292 292 292 293 293 294 296 298 302 302 300 297 299 303 307 310 311 313 312 313 315 320 319 318 316 319 318 317 319 319 318 319 319 319 318 319 322 318 318 318 317 318 317 317 316 314 312 311 310 309 308 308
291 291 291 292 292 293 293 294 296 299 301 301 297 297 301 304 308 308 310 313 311 313 315 316 321 321 316 317 317 316 318 322 316 321 319 318 320 321 316 317 317 317 317 316 316 315 313 312 311 310 309 309 308 307
291 291 291 291 291 293 293 294 296 299 300 299 298 302 303 305 308 309 311 311 311 313 313 317 318 320 317 317 317 319 318 321 321 319 317 318 319 316 316 316 317 317 316 315 314 313 312 311 310 310 309 308 307 305
291 290 290 290 291 292 293 295 298 299 299 300 302 304 306 307 308 308 309 309 311 313 314 314 315 317 315 319 318 316 318 317 318 317 317 318 316 316 316 317 316 315 315 315 315 314 312 311 310 310 308 307 306 304
290 290 290 290 291 292 293 296 297 299 299 301 303 306 306 308 306 308 308 310 314 315 314 314 314 314 314 314 315 314 315 314 315 314 316 316 315 315 315 314 315 314 314 314 314 313 312 311 310 309 307 305 304 303
291 291 291 290 291 293 294 295 297 299 301 303 305 306 307 302 307 308 312 314 316 314 313 314 314 313 312 313 313 314 313 315 313 316 315 314 315 313 313 314 314 313 313 313 312 311 310 309 308 307 307 305 303 303
292 292 292 291 292 293 295 296 296 299 302 304 300 304 307 307 309 312 314 314 313 313 314 314 313 314 313 313 313 312 313 312 314 313 315 316 312 310 310 311 311 311 310 309 310 309 309 309 308 306 305 304 304 302
294 293 294 293 293 293 294 296 297 299 301 301 303 309 308 310 310 311 311 312 312 313 313 313 312 312 313 312 312 311 311 314 313 313 316 314 309 307 305 309 310 308 309 308 308 308 308 307 306 305 304 304 303 300
294 294 294 294 293 293 294 295 296 297 300 300 305 310 309 310 312 312 312 312 312 313 313 311 312 313 312 313 312 312 312 312 314 315 314 309 306 305 305 305 308 308 307 307 307 307 307 306 305 304 304 302 300 299
294 294 294 294 294 294 294 295 297 299 299 302 307 308 309 309 310 311 312 312 313 313 315 312 312 311 311 313 312 312 313 316 314 312 307 306 304 304 304 305 305 305 305 305 305 306 305 304 304 304 302 299 298 297
294 294 294 294 294 295 296 298 299 299 299 301 307 308 309 309 310 311 312 312 312 311 311 312 311 311 312 311 312 313 312 311 310 306 306 304 303 303 305 306 305 304 304 304 304 304 303 303 302 300 299 298 297 296
293 293 294 294 295 297 298 298 299 300 301 303 306 307 309 309 310 311 311 312 311 311 310 311 312 313 313 312 313 312 309 307 304 304 304 304 305 306 306 305 304 304 305 306 305 304 302 301 300 298 297 297 296 294
293 294 294 295 297 299 300 300 300 301 304 304 304 306 307 309 309 311 311 311 310 310 311 311 312 312 313 311 311 310 309 304 303 303 302 302 304 306 306 306 305 305 305 303 301 301 300 299 298 297 296 296 295 294
295 295 295 295 299 300 300 301 301 303 304 304 306 307 307 310 311 311 311 310 310 310 311 311 312 309 309 308 310 309 306 305 305 306 304 303 304 306 304 303 304 304 303 302 302 299 299 298 297 297 296 296 295 294
297 295 299 299 300 300 300 302 304 305 305 306 307 307 307 308 310 310 310 310 310 311 311 311 310 308 306 307 308 308 308 309 308 306 306 306 304 303 302 302 303 304 304 304 303 303 299 297 296 296 296 296 294 294
298 299 300 300 299 300 300 302 305 306 307 306 307 306 307 306 306 307 310 310 309 307 309 308 307 307 307 307 308 308 308 308 307 306 306 305 303 301 303 303 304 304 304 303 301 301 298 297 297 296 297 295 294 294
299 299 299 298 299 300 301 303 305 305 305 306 306 306 307 306 306 308 309 309 308 306 307 306 306 306 306 306 307 306 306 306 306 305 305 304 304 302 301 302 301 301 301 300 300 298 297 297 297 297 296 295 295 294
299 296 298 299 298 301 304 303 305 305 305 305 303 305 305 306 307 307 309 309 307 308 307 307 308 308 308 308 307 305 305 305 305 305 304 304 304 303 303 302 302 301 300 300 300 300 299 298 297 297 296 296 295 293
298 295 299 299 300 302 303 305 304 306 304 304 305 304 305 307 306 306 306 308 308 308 307 307 309 309 308 308 306 304 304 305 305 304 303 304 303 303 302 301 301 301 301 301 300 300 300 298 297 297 296 295 293 293
298 297 297 297 300 300 303 303 304 304 303 303 304 304 305 307 306 305 303 305 307 308 306 307 309 309 308 307 307 305 304 304 305 305 303 302 303 303 302 301 301 301 300 300 300 299 299 299 298 296 296 295 293 293
295 296 299 296 298 300 303 303 303 302 303 304 303 306 307 308 306 301 301 300 302 304 305 306 306 308 307 306 305 305 305 304 304 304 304 303 302 301 301 301 300 300 300 300 300 299 299 298 298 297 296 294 293 293
295 295 296 296 297 296 296 299 301 298 298 302 303 303 300 298 297 297 298 298 299 300 301 304 305 305 305 305 305 305 304 303 303 303 303 303 303 302 301 301 300 300 299 300 299 298 298 298 297 297 296 294 293 293
294 294 296 295 296 295 291 290 291 291 295 296 297 297 298 296 296 297 297 298 298 299 299 300 301 302 304 304 304 303 303 302 302 302 303 303 302 302 301 301 300 299 299 299 298 298 297 297 296 295 293 293 292 291
293 295 294 294 292 290 290 291 292 293 294 295 297 298 297 296 295 296 297 297 298 298 298 299 299 299 300 300 300 301 301 301 301 301 300 300 300 299 299 299 299 298 298 298 297 297 297 297 295 294 293 292 292 291
292 292 295 295 292 290 291 293 293 295 295 297 295 295 295 297 296 293 294 296 296 297 298 299 299 299 299 299 300 300 299 299 299 298 298 298 297 297 297 297 297 298 298 297 297 297 297 296 295 294 293 293 292 290
292 293 292 293 293 293 292 293 295 295 295 295 293 293 293 295 294 291 292 294 295 296 297 297 298 298 298 299 299 299 298 298 298 298 298 297 295 296 296 297 297 297 297 297 296 296 296 295 295 294 293 293 292 290
Wind_Speed
27 27 29 28 26 22 19 23 21 26 31 26 22 20 20 25 23 15 6 9 6 4 5 3 4 3 4 5 6 12 7 4 7 6 4 2 3 5 3 4 8 6 5 4 5 3 2 10 7 3 8 8 7 7
25 26 27 28 26 26 22 21 23 24 28 24 22 17 18 24 24 15 6 9 9 5 4 6 5 6 5 2 5 10 2 17 6 4 2 2 3 2 6 5 2 4 1 2 5 5 13 8 13 10 8 9 8 10
24 25 26 27 26 26 25 17 17 20 25 28 21 17 17 25 25 17 10 10 7 6 7 5 5 2 2 5 7 4 2 3 2 4 3 2 2 3 4 1 9 3 2 4 7 8 13 14 12 11 11 11 11 13
25 26 26 26 25 25 26 22 20 17 21 25 24 18 17 24 28 16 5 14 6 4 4 3 3 1 1 6 8 4 2 6 9 4 4 2 1 2 1 3 5 3 8 7 11 14 14 11 12 14 15 15 15 13
24 25 27 25 25 25 26 27 23 22 21 23 22 18 18 24 27 18 11 16 12 2 3 8 6 6 5 5 4 5 8 6 6 4 3 2 2 3 1 2 2 6 5 7 6 21 6 16 15 15 16 15 14 16
24 25 26 25 24 25 26 27 26 25 22 24 22 19 20 24 25 14 3 11 6 9 4 4 4 5 7 9 9 9 7 5 3 4 3 3 1 2 3 4 4 4 4 3 8 18 17 20 18 15 16 16 15 16
24 24 24 25 24 25 27 26 27 27 23 25 22 20 22 24 23 8 3 9 12 6 3 6 6 3 5 7 7 6 7 5 4 3 1 3 5 2 1 3 9 7 8 14 18 23 23 20 20 17 17 17 18 16
23 23 23 24 24 24 26 27 28 28 26 23 22 19 23 23 21 7 2 13 14 2 2 2 4 7 3 6 5 3 4 4 4 2 2 4 4 2 3 5 11 12 15 20 14 8 20 21 20 19 18 19 18 17
22 22 24 23 24 24 26 28 30 28 25 27 21 21 20 19 7 13 1 16 14 2 2 4 7 4 6 5 4 4 2 2 1 2 3 3 4 3 6 13 13 17 13 15 15 21 23 22 21 20 19 18 18 18
22 22 24 24 25 25 26 29 32 31 27 25 25 12 7 12 16 12 6 7 2 2 3 4 6 4 10 8 3 5 1 2 2 3 0 3 5 4 5 10 14 14 15 20 25 22 22 21 21 20 17 16 16 17
23 23 24 24 26 25 28 32 31 32 33 26 12 8 14 19 15 3 5 4 6 4 8 7 10 9 4 6 4 2 2 1 3 3 3 3 4 13 12 13 13 13 16 16 12 17 17 20 22 21 18 17 18 17
25 25 26 27 28 28 31 32 31 33 29 21 15 18 22 9 5 5 4 6 5 6 14 16 16 11 7 5 4 2 2 1 2 2 1 3 3 16 16 14 14 16 17 11 16 21 20 20 19 19 20 20 19 17
27 28 27 30 29 30 32 32 34 37 19 22 11 7 6 4 5 8 9 6 6 14 20 25 13 8 5 4 4 3 3 3 3 1 3 3 13 15 16 16 18 16 15 19 21 23 24 24 22 21 19 18 19 17
30 29 31 31 32 31 33 34 33 29 16 6 9 7 5 5 6 6 10 10 15 19 29 26 13 5 5 4 4 4 2 4 3 4 5 6 16 19 17 17 19 19 19 23 26 25 24 22 20 18 18 18 17 17
33 34 33 34 34 32 31 32 36 26 2 5 3 5 6 11 12 12 15 20 21 28 30 22 9 8 4 3 3 3 4 4 6 3 3 13 19 20 19 20 21 22 23 25 25 25 23 21 20 22 20 19 17 17
33 33 36 35 34 32 32 33 29 24 3 4 8 8 16 13 10 13 22 24 28 31 28 13 6 5 4 4 6 7 6 5 3 4 11 17 19 20 20 21 21 24 24 25 26 25 23 22 23 23 21 19 18 17
35 33 40 35 35 35 37 33 20 10 5 6 4 10 15 18 18 21 25 29 34 32 10 6 6 6 7 4 5 5 3 4 10 12 14 16 21 24 22 22 25 23 23 24 24 23 22 22 23 21 21 22 20 19
45 42 36 41 39 40 36 12 7 7 3 6 4 13 11 21 24 23 24 30 33 24 14 4 7 6 5 6 5 6 6 10 10 15 18 19 21 22 24 26 25 23 22 22 23 23 22 21 20 19 21 23 22 20
49 41 42 45 48 28 9 8 11 1 5 4 11 14 16 19 18 18 21 28 21 14 12 5 3 4 4 2 6 12 15 13 19 19 20 19 22 24 25 24 23 22 23 24 24 22 19 18 17 19 21 22 19 19
49 46 53 54 43 16 7 8 18 6 9 7 10 12 13 16 20 23 28 20 19 14 3 2 2 5 6 7 7 13 15 20 30 30 25 22 22 22 23 24 23 22 23 22 20 19 18 17 16 18 19 18 17 17
56 57 58 52 24 5 5 13 7 7 8 7 19 17 12 18 24 24 20 19 12 3 3 4 9 8 8 9 11 14 18 21 23 26 32 28 23 20 21 21 22 23 24 23 22 20 19 17 17 18 21 20 16 15
53 58 46 31 3 5 3 7 5 8 7 12 13 11 8 9 10 10 12 13 5 5 5 9 9 10 11 12 14 15 19 19 18 22 22 22 21 20 22 25 26 26 23 22 20 20 19 18 19 19 22 23 19 18
40 42 31 8 6 11 7 10 7 6 4 8 16 6 4 4 3 9 4 5 4 6 9 10 11 11 15 16 19 19 19 19 19 20 21 15 14 15 21 23 23 22 20 19 16 18 17 18 22 23 23 23 21 19
26 16 1 1 1 4 5 4 6 6 8 5 4 5 5 4 9 2 3 6 8 11 10 13 14 17 16 17 17 17 16 15 18 19 17 18 17 16 17 19 17 16 15 17 17 19 21 23 24 24 24 25 23 20
6 4 1 1 2 3 4 3 3 5 4 4 4 4 3 4 3 2 5 9 13 13 13 13 13 13 17 17 16 16 15 16 18 19 17 15 16 17 16 15 15 15 17 19 20 22 21 23 24 25 25 25 23 22
2 3 3 2 2 3 3 4 4 5 5 4 4 7 5 3 3 3 7 15 17 19 20 20 17 15 14 15 18 19 17 14 14 14 16 15 16 17 18 19 20 20 19 19 19 17 19 21 25 25 26 25 23 22
4 3 3 2 3 7 6 9 16 7 4 4 5 4 3 3 5 4 6 10 14 16 23 20 15 14 15 15 13 14 17 16 12 11 14 16 14 13 15 17 16 14 15 19 19 19 18 20 23 26 26 26 25 23
5 6 4 4 5 6 4 4 3 2 3 7 10 3 7 6 2 4 4 12 16 21 23 23 19 14 15 16 16 15 16 18 19 18 14 16 17 17 16 16 16 17 16 20 17 19 20 19 18 22 27 27 25 23
7 6 4 5 6 7 7 4 3 4 3 7 3 3 3 4 3 3 8 12 13 15 17 20 22 21 19 18 17 18 18 17 19 20 21 21 22 22 22 19 19 19 20 19 18 18 19 19 18 17 23 26 24 22
7 8 3 5 4 5 6 5 3 5 5 4 4 6 7 7 8 9 10 10 9 13 16 17 18 20 21 21 21 20 19 19 19 20 22 23 23 21 20 22 20 19 19 19 20 21 21 23 21 22 26 27 26 23
5 7 5 7 5 4 4 8 8 7 6 7 10 10 9 7 8 7 7 7 7 7 9 11 14 15 16 18 18 17 17 17 17 18 19 20 22 20 19 20 19 19 19 21 21 23 25 28 27 27 28 28 26 24
6 5 2 3 3 3 4 3 3 4 4 5 6 5 6 5 5 3 4 3 4 5 7 7 8 9 10 12 13 14 14 14 16 17 18 17 16 14 14 15 17 20 21 22 21 23 26 29 30 29 29 29 27 26
4 6 6 4 3 2 3 3 3 3 4 3 4 3 4 4 4 3 3 3 1 4 7 8 8 9 11 12 15 16 16 14 14 13 12 12 12 13 14 14 17 19 20 21 22 22 26 29 29 30 30 30 27 25
Wind_Direction
193 192 191 190 192 188 190 177 171 176 180 175 176 180 181 178 168 149 194 179 117 91 98 79 67 117 162 197 166 126 145 184 195 219 194 195 261 190 227 134 169 167 161 201 182 161 162 148 150 298 100 109 102 96
190 187 187 187 187 187 188 188 172 179 171 171 179 174 177 177 167 152 146 175 120 78 129 120 111 152 146 116 47 170 287 174 179 215 241 111 190 159 224 178 245 183 345 162 16 76 114 103 93 109 112 117 114 117
184 185 182 183 184 182 183 188 175 174 171 175 168 169 174 176 167 150 142 165 101 111 111 126 117 48 165 189 158 192 108 108 120 50 85 62 219 294 192 204 167 137 182 124 143 128 124 118 111 108 111 116 120 124
178 179 179 179 178 180 180 185 190 177 170 177 178 174 173 175 172 154 154 162 104 128 123 99 73 43 342 172 166 149 111 138 118 107 71 83 173 298 16 0 276 33 171 137 104 131 130 131 121 120 117 119 121 123
175 174 173 175 176 179 180 182 183 185 177 171 172 168 172 178 179 169 161 175 144 77 135 129 108 44 66 134 144 133 134 137 145 107 92 133 101 186 69 293 212 197 159 185 196 167 164 150 139 133 128 127 128 129
170 170 170 173 176 178 177 179 180 181 178 175 178 170 175 180 181 169 167 198 167 113 121 137 109 73 84 105 112 116 119 99 115 132 121 112 139 264 197 213 87 133 122 58 118 150 134 141 137 136 132 130 130 131
169 170 170 172 177 178 177 177 176 179 171 171 177 174 177 177 172 159 140 163 179 127 108 130 134 133 120 126 102 97 84 89 96 117 122 148 164 216 242 244 147 136 125 122 131 131 130 142 137 135 131 131 130 129
172 173 172 173 175 177 176 177 176 179 170 178 175 171 172 174 177 172 26 173 168 135 126 144 107 146 150 155 113 87 117 104 46 97 167 196 156 210 235 175 145 140 135 135 140 133 143 140 136 133 133 134 132 133
177 177 177 176 176 176 175 176 175 175 168 165 161 159 157 177 188 194 220 166 159 124 158 183 161 139 150 124 116 110 107 89 53 201 185 240 193 216 226 171 161 153 152 150 130 136 139 141 140 140 140 140 139 140
183 183 180 179 180 175 173 172 173 171 167 152 144 139 171 189 169 165 111 140 186 223 209 211 110 127 166 161 109 125 105 127 189 180 142 239 243 191 187 176 169 162 150 147 137 143 148 147 148 148 148 147 147 145
188 186 184 181 180 178 172 174 174 172 152 149 160 173 155 153 163 141 128 138 190 208 190 171 166 142 131 163 120 76 139 168 226 138 232 221 241 181 165 149 156 159 156 156 157 154 155 153 151 149 149 147 147 149
191 191 188 184 183 181 179 178 179 167 153 167 163 145 138 162 153 167 185 157 220 185 164 158 148 127 120 117 112 132 133 194 214 115 199 248 165 140 161 158 152 151 155 153 156 150 151 151 152 150 148 151 160 157
189 189 186 185 184 181 181 183 185 163 150 163 149 165 186 164 174 178 165 173 185 151 165 145 137 130 119 119 113 157 143 171 128 202 236 253 141 160 158 149 146 147 141 142 143 146 153 152 157 163 163 157 157 158
193 187 187 183 184 181 183 183 190 166 180 200 158 159 209 177 220 195 183 156 147 154 155 154 135 119 129 143 153 154 93 147 205 215 231 158 160 157 155 150 149 144 145 154 157 161 163 163 157 156 159 158 163 162
188 188 183 184 182 177 185 184 189 183 208 243 220 181 173 219 201 198 190 136 155 157 154 149 120 106 116 124 168 122 167 226 224 233 121 137 155 156 154 149 151 159 161 157 159 159 159 159 159 155 158 162 164 166
186 185 191 185 179 179 181 191 192 199 269 230 238 167 151 154 147 149 150 151 158 151 150 147 144 162 153 154 178 204 187 220 170 122 131 150 151 154 154 155 161 154 155 156 157 158 162 163 163 162 163 165 164 168
183 184 188 182 179 174 182 181 183 202 222 245 206 180 156 168 170 169 161 157 158 153 161 151 154 173 130 187 201 190 219 62 121 127 143 153 157 159 155 151 153 152 151 152 155 161 159 161 166 168 166 164 167 167
199 187 180 173 168 173 174 172 162 180 249 270 238 155 144 155 159 160 163 163 165 167 158 139 127 178 164 186 184 160 131 125 131 139 139 144 150 153 157 156 154 152 152 155 160 159 163 164 163 164 170 171 171 171
191 192 185 171 171 161 144 171 183 108 227 250 144 149 140 148 156 161 162 162 163 151 133 157 144 173 164 137 130 143 150 150 138 135 137 144 152 156 156 157 157 160 167 168 165 163 163 162 166 168 171 172 171 172
179 173 167 166 167 162 136 154 178 202 186 164 140 124 133 143 151 153 156 150 149 150 111 145 123 103 125 135 150 158 155 153 154 145 144 150 155 158 165 168 167 169 165 160 161 161 159 163 168 170 173 171 171 173
152 155 162 167 166 142 109 158 218 149 144 122 138 129 126 141 143 143 144 154 146 141 113 121 124 125 126 126 132 146 151 156 162 164 158 156 158 164 169 174 175 170 170 171 170 171 171 172 172 172 174 179 176 173
143 156 158 166 121 114 105 148 179 141 116 131 125 112 101 117 138 132 150 143 123 111 113 139 137 134 131 134 138 142 140 142 147 157 158 163 163 174 180 180 178 178 181 183 186 190 183 183 180 179 184 183 179 184
139 150 157 132 162 189 149 144 170 142 116 126 126 95 70 78 117 138 98 134 123 127 121 127 129 134 135 133 136 141 145 144 144 153 154 153 157 168 178 179 183 185 186 186 191 187 184 190 186 193 193 186 188 194
130 141 97 86 79 108 116 136 124 108 118 116 90 107 107 111 144 148 138 141 141 149 145 138 137 130 133 140 143 144 145 147 147 146 153 151 153 161 170 170 179 182 189 187 185 186 195 196 197 200 194 197 201 201
70 57 37 1 2 118 100 71 74 73 100 87 84 101 119 127 131 160 178 163 162 158 157 150 147 150 148 149 151 152 147 153 153 153 156 158 155 154 162 170 178 185 189 191 197 208 208 203 203 203 201 205 207 203
114 344 4 345 330 78 101 108 120 119 104 74 91 111 137 135 127 197 183 174 174 175 171 164 156 150 154 163 163 170 161 157 158 163 167 171 173 176 177 180 187 198 207 210 219 214 212 213 211 207 207 208 208 209
91 81 71 52 80 100 77 84 114 95 95 119 144 141 133 138 196 144 144 152 170 180 186 177 172 165 160 158 164 173 184 181 175 185 191 188 190 195 205 211 218 224 220 222 221 217 219 218 220 217 213 211 211 214
56 39 59 23 75 63 83 86 91 105 111 138 134 146 161 172 121 126 149 181 182 185 190 191 184 174 183 193 194 197 194 194 201 205 203 203 207 208 211 221 226 231 230 231 227 221 219 220 227 227 220 215 212 212
47 18 41 41 64 63 47 45 84 76 56 149 110 115 114 74 96 136 154 160 166 170 178 188 193 199 203 205 201 203 209 215 213 212 216 218 219 222 225 231 238 235 234 227 215 218 223 224 226 228 222 217 214 215
28 13 58 45 45 48 24 29 69 118 85 97 103 109 95 90 85 114 136 143 161 178 184 186 190 195 199 200 203 209 213 216 219 227 231 235 240 243 242 245 244 237 232 224 215 212 211 216 218 217 212 211 209 209
9 16 52 50 74 58 70 90 88 85 84 84 101 110 115 122 99 99 123 134 140 150 166 176 183 189 195 202 208 215 219 224 232 239 246 250 253 254 247 241 234 229 225 222 221 220 221 215 213 212 209 211 212 214
37 42 65 91 87 73 64 55 58 55 51 55 59 93 105 104 93 92 52 135 160 153 160 168 181 186 195 201 208 216 223 227 235 239 250 252 246 234 225 219 217 220 223 224 228 228 224 216 212 210 210 210 213 216
34 40 61 87 102 86 41 63 64 80 61 66 44 64 68 84 98 105 58 43 176 208 212 207 204 206 216 221 223 226 228 230 235 241 233 221 222 222 221 225 223 221 224 225 224 221 215 214 213 211 209 211 215 217